TimeEDT,TemperatureF,Dew PointF,Humidity,Sea Level PressureIn,VisibilityMPH,Wind Direction,Wind SpeedMPH,Gust SpeedMPH,PrecipitationIn,Events,Conditions,WindDirDegrees,DateUTC
12:15 AM,64.4,50.5,61,30.06,10.0,SSW,5.8,-,N/A,,Overcast,200,2012-10-24 04:15:00
12:35 AM,63.5,50.9,63,30.07,10.0,SW,6.9,-,N/A,,Overcast,220,2012-10-24 04:35:00
12:55 AM,65.8,51.6,60,30.08,10.0,WSW,12.7,-,N/A,Rain,Light Rain,250,2012-10-24 04:55:00
1:15 AM,64.4,52.7,66,30.07,10.0,SSW,6.9,-,N/A,Rain,Light Rain,210,2012-10-24 05:15:00
1:35 AM,64.8,52.2,64,30.07,10.0,SSW,5.8,-,N/A,,Overcast,200,2012-10-24 05:35:00
2:15 AM,65.7,51.4,60,30.09,10.0,WSW,8.1,-,N/A,,Overcast,250,2012-10-24 06:15:00
2:35 AM,60.8,55.6,83,30.10,7.0,WSW,5.8,-,0.02,Rain,Rain,250,2012-10-24 06:35:00
2:55 AM,59.7,56.5,89,30.10,10.0,Calm,Calm,-,0.04,Rain,Light Rain,0,2012-10-24 06:55:00
3:15 AM,58.5,57.2,96,30.10,10.0,Calm,Calm,-,N/A,,Overcast,0,2012-10-24 07:15:00
3:35 AM,58.3,57.6,97,30.09,10.0,ESE,3.5,-,N/A,,Overcast,110,2012-10-24 07:35:00
3:55 AM,58.6,57.4,96,30.09,10.0,SSE,4.6,-,N/A,,Overcast,150,2012-10-24 07:55:00
4:15 AM,59.0,56.8,93,30.09,10.0,SSE,4.6,-,N/A,,Overcast,160,2012-10-24 08:15:00
4:35 AM,59.9,55.8,86,30.09,10.0,South,6.9,-,N/A,,Overcast,170,2012-10-24 08:35:00
4:55 AM,59.9,55.4,85,30.09,10.0,South,6.9,-,N/A,,Overcast,170,2012-10-24 08:55:00
5:15 AM,59.5,55.4,86,30.09,10.0,South,6.9,-,N/A,,Mostly Cloudy,170,2012-10-24 09:15:00
5:35 AM,59.0,55.2,87,30.09,10.0,SSE,6.9,-,N/A,,Mostly Cloudy,160,2012-10-24 09:35:00
5:55 AM,58.3,54.7,88,30.09,10.0,South,5.8,-,N/A,,Mostly Cloudy,170,2012-10-24 09:55:00
6:15 AM,58.6,54.9,87,30.09,10.0,South,3.5,-,N/A,,Mostly Cloudy,170,2012-10-24 10:15:00
6:35 AM,58.1,54.5,88,30.10,10.0,South,3.5,-,N/A,,Mostly Cloudy,190,2012-10-24 10:35:00
6:55 AM,57.2,54.0,89,30.11,10.0,South,3.5,-,N/A,,Scattered Clouds,170,2012-10-24 10:55:00
7:15 AM,56.8,54.1,91,30.11,10.0,South,5.8,-,N/A,,Mostly Cloudy,170,2012-10-24 11:15:00
7:35 AM,58.1,54.3,87,30.11,10.0,South,5.8,-,N/A,,Mostly Cloudy,170,2012-10-24 11:35:00
7:50 AM,57.2,53.6,88,30.12,10.0,South,5.8,-,N/A,,Mostly Cloudy,170,2012-10-24 11:50:00
7:55 AM,58.5,54.5,87,30.12,10.0,South,5.8,-,N/A,,Mostly Cloudy,170,2012-10-24 11:55:00
8:15 AM,57.9,54.1,87,30.12,10.0,South,4.6,-,N/A,,Mostly Cloudy,170,2012-10-24 12:15:00
8:50 AM,60.8,55.4,82,30.13,10.0,South,6.9,-,N/A,,Mostly Cloudy,190,2012-10-24 12:50:00
9:50 AM,62.6,53.6,72,30.14,10.0,South,10.4,-,N/A,,Scattered Clouds,190,2012-10-24 13:50:00
10:48 AM,66.2,55.4,68,30.13,10.0,South,9.2,-,N/A,,Scattered Clouds,180,2012-10-24 14:48:00
11:50 AM,71.6,55.4,57,30.11,10.0,South,11.5,-,N/A,,Clear,190,2012-10-24 15:50:00
12:50 PM,75.2,57.2,53,30.09,10.0,SSW,11.5,-,N/A,,Clear,210,2012-10-24 16:50:00
1:50 PM,77.0,55.4,47,30.07,10.0,SSW,11.5,-,N/A,,Clear,200,2012-10-24 17:50:00
2:50 PM,78.8,55.4,44,30.06,10.0,South,11.5,18.4,N/A,,Clear,190,2012-10-24 18:50:00
3:55 PM,78.8,53.6,42,30.05,10.0,SSW,10.4,18.4,N/A,,Clear,200,2012-10-24 19:55:00
4:50 PM,78.8,53.6,42,30.05,10.0,SSW,12.7,-,N/A,,Clear,200,2012-10-24 20:50:00
5:50 PM,75.2,51.8,44,30.05,10.0,SSW,11.5,-,N/A,,Clear,200,2012-10-24 21:50:00
9:15 PM,66.7,51.3,57,30.06,10.0,South,8.1,-,N/A,,Clear,190,2012-10-25 01:15:00
9:35 PM,64.4,50.5,61,30.07,10.0,SSW,6.9,-,N/A,,Clear,200,2012-10-25 01:35:00
10:15 PM,63.9,50.5,62,30.07,10.0,SW,9.2,-,N/A,,Clear,220,2012-10-25 02:15:00
10:35 PM,62.8,50.0,63,30.07,10.0,SSW,5.8,-,N/A,,Clear,210,2012-10-25 02:35:00
10:55 PM,63.1,50.0,62,30.07,10.0,South,8.1,-,N/A,,Clear,190,2012-10-25 02:55:00
11:15 PM,59.9,49.5,68,30.06,10.0,SSW,6.9,-,N/A,,Clear,210,2012-10-25 03:15:00
11:35 PM,62.2,49.3,63,30.07,10.0,SSW,5.8,-,N/A,,Clear,200,2012-10-25 03:35:00
11:55 PM,62.6,49.1,61,30.07,10.0,South,5.8,-,N/A,,Clear,170,2012-10-25 03:55:00